This is the latest recevied weather packets stored in our database for station/object K1JO. If no packets are shown the sender has not sent any weather packets the latest 10 day(s).
| Time | Temp. | Humidity | Pressure | Rain* | Wind** | Luminosity | Snow |
|---|---|---|---|---|---|---|---|
| 1777417827 | 12.78° C | 31% | 1017.9 hPa | 0 mm | - | 13 W/m² | - |
| 1777417527 | 12.78° C | 32% | 1017.7 hPa | 0 mm | - | 16 W/m² | - |
| 1777417224 | 12.78° C | 30% | 1017.4 hPa | 0 mm | - | 20 W/m² | - |
| 1777416920 | 12.78° C | 28% | 1017.4 hPa | 0 mm | - | 22 W/m² | - |
| 1777416615 | 13.33° C | 27% | 1017.2 hPa | 0 mm | - | 25 W/m² | - |
| 1777416311 | 13.33° C | 26% | 1017.4 hPa | 0 mm | - | 27 W/m² | - |
| 1777416010 | 13.33° C | 25% | 1017.3 hPa | 0 mm | - | 29 W/m² | - |
| 1777415706 | 13.89° C | 25% | 1017.4 hPa | 0 mm | - | 30 W/m² | - |
| 1777415402 | 13.89° C | 27% | 1017.1 hPa | 0 mm | - | 32 W/m² | - |
| 1777415102 | 13.89° C | 26% | 1017.4 hPa | 0 mm | - | 34 W/m² | - |
| 1777414796 | 14.44° C | 26% | 1017.3 hPa | 0 mm | - | 35 W/m² | - |
| 1777414493 | 14.44° C | 25% | 1017.2 hPa | 0 mm | - | 36 W/m² | - |
| 1777414191 | 15° C | 25% | 1017.4 hPa | 0 mm | - | 37 W/m² | - |
| 1777413887 | 15° C | 26% | 1017.3 hPa | 0 mm | - | 39 W/m² | - |
| 1777413583 | 15.56° C | 25% | 1017.4 hPa | 0 mm | - | 56 W/m² | - |
| 1777413280 | 15.56° C | 26% | 1017.4 hPa | 0 mm | - | 79 W/m² | - |
| 1777412975 | 15.56° C | 27% | 1017.1 hPa | 0 mm | - | 100 W/m² | - |
| 1777412673 | 16.11° C | 27% | 1017 hPa | 0 mm | - | 43 W/m² | - |
| 1777412372 | 16.67° C | 26% | 1017.1 hPa | 0 mm | - | 45 W/m² | - |
| 1777412066 | 16.67° C | 26% | 1017.2 hPa | 0 mm | - | 61 W/m² | - |
| 1777411761 | 16.67° C | 26% | 1017 hPa | 0 mm | - | 179 W/m² | - |
| 1777411456 | 17.22° C | 28% | 1017 hPa | 0 mm | - | 192 W/m² | - |
| 1777411150 | 17.78° C | 29% | 1017.1 hPa | 0 mm | - | 205 W/m² | - |
| 1777410850 | 17.78° C | 26% | 1017.2 hPa | 0 mm | - | 220 W/m² | - |
| 1777410544 | 17.78° C | 27% | 1017.1 hPa | 0 mm | - | 236 W/m² | - |
* Rain latest hour (hover to see other rain measurements)
** Current wind speed in m/s (hover to see current wind gust speed)